Location: Newark
(45.9456°N, 15.4064°E)
Time: 14:39:51
(UTC+00:00)

Transit 2A Rocket - Pass Details

Date: 04 February 2020
Orbit: 591 x 912 km, 66.7° (Epoch: 29 February)

Event Time Altitude Azimuth Distance (km) Brightness Sun altitude
Exits shadow 04:01:43 11° 355° (N) 1,940 7.0 -23.9°
Drops below altitude 10° 04:01:59 10° 358° (N) 1,992 7.1 -23.8°
Sets 04:05:26 0° 25° (NNE) 2,956 8.4 -23.2°
